Weather in Suoyoki

Russia / Republic of Karelia     62°12′00″N   32°36′45″E
temp.,
°C
wind,
m/s
gust,
m/s
humid.,
%
clouds,
%
prec.,
mm/h
press.,
hPa
HPBL,
m
28 september, tue
tue2800:00+5e11956 0.0 103310
03:00+5se01955 0.0 103410
06:00+4s019627 0.0 103410
09:00+7sse018725 0.0 103592
12:00+12ssw11678 0.0 1035513
15:00+13ssw11605 0.0 1034836
18:00+9s11795 0.0 103410
21:00+7wsw119146 0.0 103510
29 september, wed
wed2900:00+6w119335 0.0 103610
03:00+5w11955 0.0 103610
06:00+4w22955 0.0 103619
09:00+7w12835 0.0 1036130
12:00+11wsw22665 0.0 1036644
15:00+13sw22605 0.0 1035909
18:00+9wsw22815 0.0 103516
21:00+6wsw22945 0.0 103531
30 september, thu
thu3000:00+5wsw11955 0.0 103515
03:00+4wsw11945 0.0 103612
06:00+3wsw119527 0.0 103510
09:00+6wsw128525 0.0 1035120
12:00+10sw236669 0.0 1035621
15:00+12ssw23585 0.0 1033910
18:00+8s22795 0.0 103214
21:00+5ssw22945 0.0 103326
1 october, fri
fri100:00+4s22943 0.0 103224
03:00+3sse23965 0.0 103149
06:00+3sse26977 0.0 1030120
09:00+5s398967 0.0 1030282
12:00+10ssw47665 0.0 1029768
15:00+11ssw466212 0.0 1028943
18:00+8ssw3880100 0.0 1027517
21:00+8ssw398684 0.0 1027491
2 october, sat
sat200:00+7ssw279262 0.0 1026411
03:00+7ssw2693100 0.0 1026529
06:00+7ssw388995 0.0 1025600
09:00+7s498799 0.0 1024477
12:00+10ssw597756 0.0 1023769
15:00+12s510675 0.0 1022965
18:00+9s412815 0.0 1022681
21:00+8s4148459 0.0 1021591